DateTimeUTC,F1_A11,F1_S11,BsB_S11,BsG_S11,BsR_S11,BbsB_S11,BbsG_S11,BbsR_S11,BaB_A11,BaG_A11,BaR_A11,Tu_S11,T_S11,Uu_S11,U_S11,P_S11,T1_A11
2021-07-01T00:00:00Z,00000200,20000000,,,,,,,-000.21,0000.12,0000.16,18.8,25.5,05.9,03.9,0667.8,31.1
2021-07-01T00:01:00Z,00000200,20000000,,,,,,,0000.18,0000.12,0000.05,18.8,25.5,05.9,03.9,0667.8,31.1
2021-07-01T00:02:00Z,00000200,20000000,,,,,,,-000.06,-000.03,0000.03,18.8,25.5,05.9,03.9,0667.8,31.1
2021-07-01T00:03:00Z,00000200,60000000,,,,,,,-000.13,-000.15,-000.08,18.8,25.5,05.9,03.9,0667.8,31.1
2021-07-01T00:04:00Z,00000200,40000000,0000.61,0000.24,0000.22,0000.17,-000.06,-000.02,0000.15,-000.04,-000.17,18.7,25.2,05.9,03.9,0668.7,31.1
2021-07-01T00:05:00Z,00000200,00000000,0000.28,0000.23,-000.17,0000.45,0000.08,0000.02,0000.02,0000.06,0000.13,18.7,25.1,06.0,04.0,0668.8,31.0
2021-07-01T00:06:00Z,00000200,00000000,0000.54,0000.21,0000.14,0000.42,0000.03,0000.07,-000.13,0000.03,0000.18,18.6,25.1,05.9,04.0,0668.8,31.0
2021-07-01T00:07:00Z,00000200,00000000,0000.58,-000.04,-000.05,-000.02,0000.10,0000.33,0000.31,-000.10,0000.04,18.6,25.1,06.0,04.0,0668.9,31.0
2021-07-01T00:08:00Z,00000200,00000000,0000.57,0000.08,0000.34,0000.21,0000.36,0000.12,0000.01,-000.22,-000.26,18.5,25.0,06.0,04.0,0668.9,31.1
2021-07-01T00:09:00Z,00000200,00000000,0000.19,-000.07,0000.27,0000.55,0000.19,0000.24,-000.08,0000.28,0000.26,18.6,25.0,06.1,04.1,0668.8,31.1
2021-07-01T00:10:00Z,00000200,00000000,-000.43,0000.12,0000.15,0000.39,0000.13,0000.08,0000.06,0000.31,0000.25,18.7,25.0,06.0,04.0,0668.9,31.1
2021-07-01T00:11:00Z,00000200,00000000,-000.10,0000.01,-000.29,0000.58,0000.03,-000.05,0000.06,-000.07,-000.24,18.7,25.1,06.0,04.1,0668.9,31.1
2021-07-01T00:12:00Z,00000200,00000000,0000.17,-000.13,0000.36,0000.24,0000.06,0000.01,-000.31,0000.03,-000.14,18.8,25.1,06.0,04.1,0668.9,31.1
2021-07-01T00:13:00Z,00000200,00000000,0000.64,0000.00,0000.39,0000.43,0000.16,0000.36,0000.59,0000.37,0000.47,18.9,25.2,05.9,04.0,0669.0,31.1
2021-07-01T00:14:00Z,00000200,00000000,0000.54,0000.47,-000.01,0000.30,0000.09,-000.19,-000.25,-000.09,-000.07,19.0,25.2,05.9,04.0,0669.0,31.1
2021-07-01T00:15:00Z,00000200,00000000,0000.41,-000.01,0000.16,0000.17,-000.00,0000.10,0000.34,0000.09,0000.16,19.1,25.2,05.9,04.1,0668.9,31.2
2021-07-01T00:16:00Z,00000200,00000000,0000.13,0000.04,-000.02,0000.28,0000.04,-000.01,-000.07,-000.23,-000.14,19.1,25.3,05.8,04.0,0668.9,31.2
2021-07-01T00:17:00Z,00000200,00000000,0000.31,0000.24,0000.51,-000.02,-000.21,0000.38,-000.26,0000.14,-000.23,19.2,25.3,05.7,03.9,0668.9,31.2
2021-07-01T00:18:00Z,00000200,00000000,-000.03,0000.06,0000.01,0000.26,0000.23,0000.17,-000.05,0000.42,0000.34,19.2,25.4,05.8,03.9,0668.9,31.2
2021-07-01T00:19:00Z,00000200,00000000,0000.29,-000.17,0000.48,0000.52,-000.05,0000.01,0000.13,-000.52,-000.23,19.1,25.3,05.7,03.9,0669.0,31.1
2021-07-01T00:20:00Z,00000200,00000000,0000.34,0000.42,0000.09,-000.11,0000.10,0000.05,-000.05,0000.10,-000.01,19.1,25.3,05.6,03.9,0668.9,31.1
2021-07-01T00:21:00Z,00000200,00000000,0000.34,0000.20,0000.01,-000.11,-000.06,-000.05,-000.24,-000.03,-000.24,19.0,25.3,05.7,03.9,0668.9,31.1
2021-07-01T00:22:00Z,00000200,00000000,0000.55,0000.22,0000.30,0000.90,0000.35,0000.08,0000.07,-000.11,0000.31,19.0,25.2,05.7,03.9,0669.0,31.1
2021-07-01T00:23:00Z,00000200,00000000,0000.50,0000.07,0000.13,0000.63,0000.08,0000.02,0000.01,-000.00,-000.22,18.9,25.2,05.6,03.8,0668.9,31.1
2021-07-01T00:24:00Z,00000200,00000000,0000.80,0000.20,0000.14,0000.07,0000.11,0000.02,0000.11,-000.00,0000.23,18.9,25.2,05.5,03.8,0669.0,31.1
2021-07-01T00:25:00Z,00000200,00000000,0000.30,-000.30,0000.11,0000.11,-000.09,0000.27,0000.07,0000.19,-000.07,19.0,25.2,05.7,03.9,0669.1,31.1
2021-07-01T00:26:00Z,00000200,00000000,0000.39,0000.07,0000.55,0000.02,0000.20,0000.12,-000.01,-000.03,0000.10,19.1,25.3,05.5,03.8,0669.1,31.1
2021-07-01T00:27:00Z,00000200,00000000,0000.27,-000.25,0000.03,0000.62,-000.01,0000.00,-000.02,-000.00,-000.16,19.1,25.3,05.4,03.7,0669.1,31.1
2021-07-01T00:28:00Z,00000200,00000000,0000.67,0000.13,-000.31,0000.42,-000.04,0000.08,0000.08,-000.02,0000.27,19.2,25.3,05.3,03.7,0669.1,31.2
2021-07-01T00:29:00Z,00000200,00000000,0000.08,0000.12,0000.01,0000.34,0000.22,0000.14,-000.18,-000.11,-000.05,19.3,25.4,05.3,03.6,0669.2,31.2
2021-07-01T00:30:00Z,00000200,00000000,0000.56,-000.03,0000.18,0000.07,0000.11,0000.10,0000.03,-000.12,-000.39,19.3,25.4,05.2,03.6,0669.2,31.2
2021-07-01T00:31:00Z,00000200,00000000,0000.28,0000.27,0000.32,0000.93,-000.09,0000.16,-000.26,-000.03,-000.11,19.3,25.4,05.1,03.5,0669.2,31.2
2021-07-01T00:32:00Z,00000200,00000000,0000.52,-000.14,0000.19,-000.09,-000.06,0000.16,-000.06,-000.11,-000.27,19.2,25.4,05.1,03.5,0669.2,31.2
2021-07-01T00:33:00Z,00000200,00000000,0000.94,-000.03,0000.36,0000.50,0000.01,0000.24,-000.24,0000.02,0000.44,19.2,25.4,04.9,03.4,0669.2,31.1
2021-07-01T00:34:00Z,00000200,00000000,0000.27,-000.08,0000.27,-000.49,-000.04,0000.06,0000.02,-000.18,-000.06,19.1,25.3,04.9,03.3,0669.3,31.1
2021-07-01T00:35:00Z,00000200,00000000,-000.03,0000.28,0000.46,-000.02,0000.11,-000.09,-000.33,-000.09,-000.36,19.0,25.3,04.8,03.3,0669.3,31.1
2021-07-01T00:36:00Z,00000200,00000000,-000.10,0000.23,-000.02,0000.38,-000.06,0000.21,0000.41,-000.08,0000.23,19.0,25.3,04.8,03.3,0669.3,31.1
2021-07-01T00:37:00Z,00000200,00000000,0000.26,-000.02,0000.40,0000.45,0000.03,0000.54,-000.40,0000.01,-000.10,18.9,25.3,04.8,03.2,0669.3,31.1
2021-07-01T00:38:00Z,00000200,00000000,-000.36,-000.11,0000.16,0000.56,0000.13,0000.17,-000.04,0000.02,0000.03,18.9,25.2,04.7,03.2,0669.3,31.1
2021-07-01T00:39:00Z,00000200,00000000,0001.22,0000.15,0000.01,0000.59,0000.05,0000.17,0000.26,0000.05,-000.00,18.9,25.2,04.6,03.2,0669.3,31.1
2021-07-01T00:40:00Z,00000200,00000000,0000.46,0000.07,0000.02,0000.64,0000.19,-000.02,0000.07,-000.08,0000.01,18.9,25.2,04.6,03.2,0669.3,31.1
2021-07-01T00:41:00Z,00000200,00000000,-000.22,0000.62,0000.27,-000.20,0000.15,0000.17,-000.30,-000.21,-000.02,19.0,25.3,04.5,03.1,0669.3,31.1
2021-07-01T00:42:00Z,00000200,00000000,-000.20,0000.08,0000.10,0000.02,0000.05,0000.15,-000.02,-000.25,-000.26,19.0,25.3,04.5,03.0,0669.4,31.1
2021-07-01T00:43:00Z,00000200,00000000,0000.32,0000.26,0000.43,0000.61,0000.02,0000.06,0000.09,0000.37,0000.43,19.0,25.3,04.4,03.0,0669.4,31.1
2021-07-01T00:44:00Z,00000200,00000000,0000.46,-000.04,0000.12,0000.00,0000.37,0000.14,-000.22,-000.27,-000.12,19.0,25.3,04.5,03.1,0669.4,31.1
2021-07-01T00:45:00Z,00000200,00000000,0000.13,-000.08,0000.31,-000.57,0000.18,0000.11,-000.15,-000.07,-000.30,18.9,25.3,04.4,03.0,0669.4,31.1
2021-07-01T00:46:00Z,00000200,00000000,-000.08,0000.08,0000.41,0000.43,-000.08,-000.00,0000.25,0000.06,0000.12,18.9,25.2,04.3,02.9,0669.4,31.1
2021-07-01T00:47:00Z,00000200,00000000,0000.15,-000.07,0000.52,-000.10,0000.34,-000.13,-000.11,0000.04,-000.06,18.8,25.2,04.3,03.0,0669.4,31.1
2021-07-01T00:48:00Z,00000200,00000000,0000.74,0000.07,0000.60,0000.31,-000.00,0000.19,0000.14,-000.04,-000.05,18.8,25.1,04.4,03.0,0669.4,31.1
2021-07-01T00:49:00Z,00000200,00000000,0000.53,0000.13,-000.06,0000.70,-000.11,0000.04,0000.09,0000.09,-000.07,18.7,25.1,04.3,02.9,0669.4,31.1
2021-07-01T00:50:00Z,00000200,00000000,0000.96,-000.16,0000.19,0000.20,0000.15,0000.24,-000.06,0000.05,0000.04,18.7,25.0,04.4,03.0,0669.4,31.0
2021-07-01T00:51:00Z,00000200,00000000,0000.97,0000.16,0000.23,0000.11,-000.02,0000.05,-000.21,-000.06,0000.11,18.6,25.0,04.4,03.0,0669.4,31.0
2021-07-01T00:52:00Z,00000200,00000000,0000.35,-000.02,0000.14,0000.18,-000.00,0000.02,0000.12,-000.15,0000.03,18.5,25.0,04.4,03.0,0669.4,31.0
2021-07-01T00:53:00Z,00000200,00000000,-000.05,0000.22,0000.22,0000.63,0000.14,0000.09,0000.26,0000.16,0000.41,18.5,25.0,04.4,03.0,0669.4,31.0
2021-07-01T00:54:00Z,00000200,00000000,0000.64,0000.02,0000.23,0000.35,0000.17,0000.26,-000.04,0000.04,-000.09,18.5,25.0,04.4,03.0,0669.4,31.1
2021-07-01T00:55:00Z,00000200,00000000,-000.21,0000.57,0000.11,-000.10,0000.19,0000.10,-000.20,-000.12,-000.22,18.6,25.0,04.4,03.0,0669.4,31.1
2021-07-01T00:56:00Z,00000200,00000000,0000.97,-000.23,0000.02,-000.33,-000.09,-000.10,0000.19,0000.28,0000.06,18.7,25.0,04.4,03.0,0669.5,31.1
2021-07-01T00:57:00Z,00000200,40000000,,,,,,,0000.20,0000.24,0000.20,18.8,25.1,04.7,03.2,0669.5,31.1
2021-07-01T00:58:00Z,00000200,60000000,,,,,,,0000.02,-000.06,0000.19,18.6,25.2,04.7,03.1,0668.5,31.1
2021-07-01T00:59:00Z,00000200,20000000,,,,,,,-000.07,-000.05,-000.05,18.7,25.3,04.5,03.0,0668.5,31.1
